HYLAS 1

Last updated on Tue Sep 16 2025 00:02:47 GMT+0000 (Coordinated Universal Time)

1 37237U 10065A 25258.49262220 -.00000162 00000+0 00000+0 0 9991 2 37237 4.9423 76.3881 0001793 188.8171 162.9345 1.00615602 4121
UTC large
Height (km)
Speed (km/s)
/
Latitude / Longitude
Inclination (degrees)
Orbital Period (minutes)
Azimuth
Elevation
Range (km)
Doppler Factor

Next 0 passes for location: London (51.5072 / 0.1276)

Sorry there are no passes over London.